This is the latest recevied weather packets stored in our database for station/object HK6RM-18. If no packets are shown the sender has not sent any weather packets the latest 10 day(s).
| Time | Temp. | Humidity | Pressure | Rain* | Wind** | Luminosity | Snow |
|---|---|---|---|---|---|---|---|
| 1778009981 | 22.78° C | 79% | 1010 hPa | 0 mm | - | - | - |
| 1778009081 | 23.33° C | 75% | 1011 hPa | 0 mm | - | - | - |
| 1778008179 | 23.89° C | 71% | 1011 hPa | 0 mm | - | - | - |
| 1778007278 | 24.44° C | 67% | 1011 hPa | 0 mm | - | - | - |
| 1778006377 | 25° C | 67% | 1011 hPa | 0 mm | - | - | - |
| 1778005476 | 25.56° C | 67% | 1013 hPa | 0 mm | - | - | - |
| 1778004574 | 22.22° C | 77% | 1013 hPa | 0 mm | - | - | - |
| 1778003674 | 22.78° C | 77% | 1013 hPa | 0 mm | - | - | - |
| 1778002772 | 22.22° C | 76% | 1013 hPa | 0 mm | - | - | - |
| 1778001872 | 22.78° C | 76% | 1014 hPa | 0 mm | - | - | - |
| 1778000971 | 23.33° C | 76% | 1014 hPa | 0 mm | - | - | - |
| 1778000069 | 22.22° C | 76% | 1014 hPa | 0 mm | - | - | - |
| 1777999164 | 22.78° C | 76% | 1014 hPa | 0 mm | - | - | - |
| 1777998264 | 23.33° C | 76% | 1015 hPa | 0 mm | - | - | - |
| 1777997363 | 23.89° C | 75% | 1015 hPa | 0 mm | - | - | - |
| 1777996463 | 21.11° C | 78% | 1015 hPa | 0 mm | - | - | - |
| 1777995562 | 21.67° C | 78% | 1015 hPa | 0 mm | - | - | - |
| 1777994662 | 20.56° C | 80% | 1015 hPa | 0 mm | - | - | - |
| 1777993761 | 21.11° C | 79% | 1015 hPa | 0 mm | - | - | - |
| 1777992861 | 21.67° C | 79% | 1015 hPa | 0 mm | - | - | - |
| 1777991960 | 20.56° C | 77% | 1015 hPa | 0 mm | - | - | - |
| 1777991059 | 21.11° C | 74% | 1016 hPa | 0 mm | - | - | - |
| 1777989256 | 22.22° C | 70% | 1016 hPa | 0 mm | - | - | - |
| 1777988355 | 22.78° C | 70% | 1016 hPa | 0 mm | - | - | - |
| 1777987455 | 17.78° C | 91% | 1016 hPa | 0 mm | - | - | - |
* Rain latest hour (hover to see other rain measurements)
** Current wind speed in m/s (hover to see current wind gust speed)